Air Resources Laboratory banner image
Air Resources Laboratory web site National Oceanic and Atmospheric Administration (NOAA)

ia roundup


Office: DMX

ASUS43 KDMX 191101
RWRIA

WEATHER ROUNDUP FOR IOWA
NATIONAL WEATHER SERVICE DES MOINES IA
600 AM CDT THU JUL 19 2018

NOTE: "FAIR" INDICATES FEW OR NO CLOUDS BELOW 12,000 FEET WITH NO
SIGNIFICANT WEATHER AND/OR OBSTRUCTIONS TO VISIBILITY.

* - THESE STATIONS ARE NOT NWS STATIONS...THUS NOT UNDER NWS
QUALITY CONTROL.  THEY ALSO DO NOT REPORT WEATHER SUCH
AS PRECIPITATION OR FOG.

IAZ001>003-012>014-020>022-031>034-043>046-191200-
   NORTHWEST IOWA

CITY           SKY/WX    TMP DP  RH WIND       PRES   REMARKS
CARROLL *      MOCLDY    68  68 100 SE7       29.84F
CHEROKEE *     CLOUDY    70  68  95 S7        29.81S
DENISON *      CLEAR     68  66  94 S6G14     29.84S
LE MARS *      CLOUDY    70  68  94 S12G17    29.77F
ORANGE CITY *  CLOUDY    72  70  94 S12       29.79S
SHELDON *      CLOUDY    68  68 100 S10       29.77F
SIOUX CITY     CLOUDY    71  69  93 S10       29.78F
SPENCER        CLOUDY    72  66  81 SE13      29.81F
STORM LAKE *   MOCLDY    66  64  94 S9        29.82F
$$

IAZ055>058-069>071-079>083-090>094-191200-
   SOUTHWEST IOWA

CITY           SKY/WX    TMP DP  RH WIND       PRES   REMARKS
ATLANTIC *     MOCLDY    70  68  94 S5        29.84S
AUDUBON *      CLEAR     68  64  88 CALM      29.85F
CLARINDA *     CLOUDY    70  68  94 CALM      29.86S
COUNCIL BLFS * CLOUDY    70  70 100 S6        29.83S FOG
CRESTON *      CLOUDY    70  66  88 SE8       29.88S
HARLAN  *        N/A     66  66 100 S6        29.84F
LAMONI         MOCLDY    71  65  81 S7        29.88S
RED OAK *      PTCLDY    70  70 100 S6        29.84F
SHENANDOAH *     N/A     72  70  94 SW6       29.84F
$$

IAZ047>049-059>061-072>074-084-191200-
   CENTRAL IOWA

CITY           SKY/WX    TMP DP  RH WIND       PRES   REMARKS
AMES           CLOUDY    69  65  86 MISG      29.88F
ANKENY *       CLOUDY    68  66  94 SE10G17   29.89S
BOONE *        CLOUDY    68  66  94 SE14      29.87F
CHARITON *     CLOUDY    70  66  88 E7        29.88F
DES MOINES     CLOUDY    70  67  90 SE12      29.87F
GRINNELL*      HVY RAIN  65  64  97 CALM      29.95R
KNOXVILLE *    CLOUDY    66  66 100 SE10      29.88F
MARSHALLTOWN   LGT RAIN  66  66 100 S10       29.92R
NEWTON *       CLOUDY    66  64  94 SE14G22   29.92S
PELLA *        LGT RAIN  66  65  96 SE8       29.91F
PERRY *        CLOUDY    72  70  92 SE9       29.86F
$$

IAZ004>006-015-016-023>025-035-036-191200-
   NORTH CENTRAL IOWA

CITY           SKY/WX    TMP DP  RH WIND       PRES   REMARKS
ALGONA *       CLOUDY    70  68  94 SE14G20   29.84F FOG
CLARION *      CLOUDY    68  66  94 SE15G24   29.86F
ESTHERVILLE    CLOUDY    69  66  90 SE13      29.82F
FORT DODGE *   CLOUDY    71  67  87 SE10G20   29.85F
MASON CITY     TSTM      68  67  96 SE12G23   29.91S FOG
FOREST CITY *  LGT RAIN  68  68 100 SE10      29.87F
WEBSTER CITY * CLOUDY    68  66  94 SE16G23   29.84F
IOWA FALLS *   RAIN      67  65  94 SE14G22   29.91F
$$

IAZ007>011-017>019-026>030-037>042-050>054-066-191200-
   NORTHEAST IOWA

CITY           SKY/WX    TMP DP  RH WIND       PRES   REMARKS
CEDAR RAPIDS   HVY RAIN  64  64 100 SE8       29.95F FOG
CHARLES CITY * CLOUDY    66  64  94 SE10      29.92F
CLINTON *      FAIR      63  56  78 SE9       29.99F
DECORAH *      MOCLDY    63  63 100 SE6       29.95S
DUBUQUE        MOCLDY    62  56  80 S8        30.00S
MONTICELLO *   MOCLDY    64  61  88 SE8       29.97S
OELWEIN *      CLOUDY    66  64  94 SE8       29.95F
WATERLOO       CLOUDY    66  66 100 SE8       29.92F
$$

IAZ064-065-067-068-078-191200-
   EAST CENTRAL IOWA

CITY           SKY/WX    TMP DP  RH WIND       PRES   REMARKS
DAVENPORT      FAIR      62  55  77 SE6       30.00F
IOWA CITY      RAIN      66  63  90 SE8       29.98F
MUSCATINE *    CLOUDY    66  61  82 CALM      29.98R
QUAD CITIES    LGT RAIN  64  59  83 E7        29.98F
$$

IAZ062-063-075>077-085>089-095>099-191200-
   SOUTHEAST IOWA

CITY           SKY/WX    TMP DP  RH WIND       PRES   REMARKS
BURLINGTON     CLOUDY    66  62  87 SE7       29.96F
FAIRFIELD *    CLOUDY    64  61  88 E9        29.94S
FORT MADISON * CLOUDY    66  61  82 SE6       29.96F
KEOKUK *       MOCLDY    66  61  82 SE9       29.94F
OSKALOOSA *    CLOUDY    64  64  97 SE10      29.92F
CENTERVILLE *    N/A     70  66  88 SE6       29.92F
OTTUMWA        LGT RAIN  66  64  93 E12       29.92F
WASHINGTON *   RAIN      64  64 100 E8        29.97F
$$

ABBREVIATIONS USED IN REMARKS
   TC - TEMPERATURES IN CELSIUS
  WCI - WIND CHILL INDEX
   HX - HEAT INDEX
  VSB - VISIBILITY
$$



ASUS43 KDMX 191106
RWRIA

WEATHER ROUNDUP FOR IOWA
NATIONAL WEATHER SERVICE DES MOINES IA
600 AM CDT THU JUL 19 2018

NOTE: "FAIR" INDICATES FEW OR NO CLOUDS BELOW 12,000 FEET WITH NO
SIGNIFICANT WEATHER AND/OR OBSTRUCTIONS TO VISIBILITY.

* - THESE STATIONS ARE NOT NWS STATIONS...THUS NOT UNDER NWS
QUALITY CONTROL.  THEY ALSO DO NOT REPORT WEATHER SUCH
AS PRECIPITATION OR FOG.

IAZ001>003-012>014-020>022-031>034-043>046-191200-
   NORTHWEST IOWA

CITY           SKY/WX    TMP DP  RH WIND       PRES   REMARKS
CARROLL *      MOCLDY    68  68 100 SE7       29.84F
CHEROKEE *     CLOUDY    70  68  95 S7        29.81S
DENISON *      CLEAR     68  66  94 S6G14     29.84S
LE MARS *      CLOUDY    70  68  94 S12G17    29.77F
ORANGE CITY *  CLOUDY    72  70  94 S12       29.79S
SHELDON *      CLOUDY    68  68 100 S10       29.77F
SIOUX CITY     CLOUDY    71  69  93 S10       29.78F
SPENCER        CLOUDY    72  66  81 SE13      29.81F
STORM LAKE *   MOCLDY    66  64  94 S9        29.82F
$$

IAZ055>058-069>071-079>083-090>094-191200-
   SOUTHWEST IOWA

CITY           SKY/WX    TMP DP  RH WIND       PRES   REMARKS
ATLANTIC *     MOCLDY    70  68  94 S5        29.84S
AUDUBON *      CLEAR     68  64  88 CALM      29.85F
CLARINDA *     CLOUDY    70  68  94 CALM      29.86S
COUNCIL BLFS * CLOUDY    70  70 100 S6        29.83S FOG
CRESTON *      CLOUDY    70  66  88 SE8       29.88S
HARLAN  *        N/A     66  66 100 S6        29.84F
LAMONI         MOCLDY    71  65  81 S7        29.88S
RED OAK *      PTCLDY    70  70 100 S6        29.84F
SHENANDOAH *     N/A     72  70  94 SW6       29.84F
$$

IAZ047>049-059>061-072>074-084-191200-
   CENTRAL IOWA

CITY           SKY/WX    TMP DP  RH WIND       PRES   REMARKS
AMES           CLOUDY    69  65  86 MISG      29.88F
ANKENY *       CLOUDY    68  66  94 SE10G17   29.89S
BOONE *        CLOUDY    68  66  94 SE14      29.87F
CHARITON *     CLOUDY    70  66  88 E7        29.88F
DES MOINES     CLOUDY    70  67  90 SE12      29.87F
GRINNELL*      HVY RAIN  65  64  97 CALM      29.95R
KNOXVILLE *    CLOUDY    66  66 100 SE10      29.88F
MARSHALLTOWN   HVY RAIN  66  66 100 SE6       29.92R FOG
NEWTON *       CLOUDY    66  64  94 SE14G22   29.92S
PELLA *        LGT RAIN  66  65  96 SE8       29.91F
PERRY *        CLOUDY    72  70  92 SE9       29.86F
$$

IAZ004>006-015-016-023>025-035-036-191200-
   NORTH CENTRAL IOWA

CITY           SKY/WX    TMP DP  RH WIND       PRES   REMARKS
ALGONA *       CLOUDY    70  68  94 SE14G20   29.84F FOG
CLARION *      CLOUDY    68  66  94 SE15G24   29.86F
ESTHERVILLE    CLOUDY    69  66  90 SE13      29.82F
FORT DODGE *   CLOUDY    71  67  87 SE10G20   29.85F
MASON CITY     TSTM      68  67  96 SE12G23   29.91S FOG
FOREST CITY *  LGT RAIN  68  68 100 SE10      29.87F
WEBSTER CITY * CLOUDY    68  66  94 SE16G23   29.84F
IOWA FALLS *   RAIN      67  65  94 SE14G22   29.91F
$$

IAZ007>011-017>019-026>030-037>042-050>054-066-191200-
   NORTHEAST IOWA

CITY           SKY/WX    TMP DP  RH WIND       PRES   REMARKS
CEDAR RAPIDS   HVY RAIN  64  64 100 SE8       29.95F FOG
CHARLES CITY * CLOUDY    66  64  94 SE10      29.92F
CLINTON *      FAIR      63  56  78 SE9       29.99F
DECORAH *      MOCLDY    63  63 100 SE6       29.95S
DUBUQUE        MOCLDY    62  56  80 S8        30.00S
MONTICELLO *   MOCLDY    64  61  88 SE8       29.97S
OELWEIN *      CLOUDY    66  64  94 SE8       29.95F
WATERLOO       CLOUDY    66  66 100 SE8       29.92F
$$

IAZ064-065-067-068-078-191200-
   EAST CENTRAL IOWA

CITY           SKY/WX    TMP DP  RH WIND       PRES   REMARKS
DAVENPORT      FAIR      62  55  77 SE6       30.00F
IOWA CITY      RAIN      66  63  90 SE8       29.98F
MUSCATINE *    CLOUDY    66  61  82 CALM      29.98R
QUAD CITIES    LGT RAIN  64  59  83 E7        29.98F
$$

IAZ062-063-075>077-085>089-095>099-191200-
   SOUTHEAST IOWA

CITY           SKY/WX    TMP DP  RH WIND       PRES   REMARKS
BURLINGTON     CLOUDY    66  62  87 SE7       29.96F
FAIRFIELD *    CLOUDY    64  61  88 E9        29.94S
FORT MADISON * CLOUDY    66  61  82 SE6       29.96F
KEOKUK *       MOCLDY    66  61  82 SE9       29.94F
OSKALOOSA *    CLOUDY    64  64  97 SE10      29.92F
CENTERVILLE *    N/A     70  66  88 SE6       29.92F
OTTUMWA        LGT RAIN  66  64  93 E12       29.92F
WASHINGTON *   RAIN      64  64 100 E8        29.97F
$$

ABBREVIATIONS USED IN REMARKS
   TC - TEMPERATURES IN CELSIUS
  WCI - WIND CHILL INDEX
   HX - HEAT INDEX
  VSB - VISIBILITY
$$





Office: FSD ASUS43 KFSD 191102 RWRSD WEATHER ROUNDUP FOR SOUTH DAKOTA NATIONAL WEATHER SERVICE SIOUX FALLS SD 600 AM CDT THU JUL 19 2018 NOTE: "FAIR" INDICATES FEW OR NO CLOUDS BELOW 12,000 FEET WITH NO SIGNIFICANT WEATHER AND/OR OBSTRUCTIONS TO VISIBILITY. SDZ001>005-009-010-012>017-191200- NORTHWEST AND NORTH CENTRAL SOUTH DAKOTA CITY SKY/WX TMP DP RH WIND PRES REMARKS BUFFALO N/A 63 54 72 N7 29.91F FAITH N/A 58 58 100 NW10 29.93R MOBRIDGE PTCLDY 65 63 93 NW9 29.82R $$ SDZ012>016-024>037-041>051-057-063-072>074-191200- SOUTHWEST AND SOUTH CENTRAL SOUTH DAKOTA CITY SKY/WX TMP DP RH WIND PRES REMARKS RAPID CTY ARPT CLEAR 55 52 89 SE5 29.96S PIERRE CLOUDY 65 65 100 NW10 29.84R CUSTER PTCLDY 59 52 77 SW6 30.11S ELLSWORTH AFB CLEAR 62 56 79 CALM 29.96R PHILIP PTCLDY 62 61 96 NW6 29.91R PINE RIDGE CLEAR 60 58 92 W6 29.99S SPEARFISH FAIR 57 52 82 E3 29.99S WINNER CLOUDY 68 64 87 NW13 29.87R $$ SDZ004>011-016>023-039-040-191200- NORTHEAST SOUTH DAKOTA CITY SKY/WX TMP DP RH WIND PRES REMARKS ABERDEEN LGT RAIN 67 66 97 CALM 29.75F WATERTOWN PTCLDY 63 63 100 N5 29.73F SISSETON N/A 67 66 97 CALM 29.74F $$ SDZ017-020-022-023-036>040-048>070-191200- SOUTHEAST SOUTH DAKOTA CITY SKY/WX TMP DP RH WIND PRES REMARKS SIOUX FALLS CLOUDY 72 71 97 S7 29.75F HURON CLOUDY 65 64 97 NW12 29.74F CHAMBERLAIN CLOUDY 68 68 100 NW13 29.82R MITCHELL MOCLDY 68 65 90 W10 29.75S YANKTON CLEAR 70 67 90 SW9 29.77R $$ ABBREVIATIONS USED IN REMARKS TC - TEMPERATURE IN CELSIUS WCI - WIND CHILL INDEX HX - HEAT INDEX VSB - VISIBILITY ASUS43 KFSD 191102 RWRFSD WEATHER ROUNDUP FOR SE SOUTH DAKOTA/SW MINNESOTA/NW IOWA NATIONAL WEATHER SERVICE SIOUX FALLS SD 600 AM CDT THU JUL 19 2018 NOTE: "FAIR" INDICATES FEW OR NO CLOUDS BELOW 12,000 FEET WITH NO SIGNIFICANT WEATHER AND OR OBSTRUCTIONS TO VISIBILITY. SDZ038>040-050-052>070-191200- SOUTHEAST SOUTH DAKOTA CITY SKY/WX TMP DP RH WIND PRES REMARKS CHAMBERLAIN CLOUDY 68 68 100 NW13 29.82R HURON CLOUDY 65 64 97 NW12 29.74F MADISON FAIR 66 66 100 SW8 29.75F MITCHELL MOCLDY 68 65 90 W10 29.75S SIOUX FALLS CLOUDY 72 71 97 S7 29.75F WINNER CLOUDY 68 64 87 NW13 29.87R YANKTON CLEAR 70 67 90 SW9 29.77R $$ MNZ071-072-080-081-089-090-097-098-191200- SOUTHWEST MINNESOTA CITY SKY/WX TMP DP RH WIND PRES REMARKS FAIRMONT LGT RAIN 69 67 93 SE12 29.82F JACKSON CLOUDY 70 64 83 S10G17 29.82F LUVERNE TSTM 68 64 88 S10 29.77F MARSHALL RAIN 69 67 93 S15 29.76F MONTEVIDEO LGT RAIN 68 66 94 S13G18 29.76F PIPESTONE CLOUDY 70 66 88 S12 29.76F REDWOOD FALLS LGT RAIN 68 67 96 SE13 29.76F FOG TRACY RAIN 69 67 93 S9 29.77F WINDOM PTCLDY 70 68 94 SE14 29.80S WORTHINGTON CLOUDY 69 65 86 S14 29.80F $$ IAZ001>003-012>014-020>022-031-032-NEZ013-014-SDZ071-191200- NORTHWEST IOWA CITY SKY/WX TMP DP RH WIND PRES REMARKS CHEROKEE CLOUDY 70 68 95 S7 29.81S DENISON CLEAR 68 66 94 S6G14 29.84S ESTHERVILLE CLOUDY 69 66 90 SE13 29.82F ORANGE CITY CLOUDY 72 70 94 S12 29.79S SHELDON CLOUDY 68 68 100 S10 29.77F SIOUX CITY CLOUDY 71 69 93 S10 29.78F SPENCER CLOUDY 72 66 81 SE13 29.81F STORM LAKE MOCLDY 66 64 94 S9 29.82F $$ ABBREVIATIONS USED IN REMARKS TC - TEMPERATURE IN CELSIUS WCI - WIND CHILL INDEX HX - HEAT INDEX VSB - VISIBILITY ASUS43 KFSD 191110 RWRFSD WEATHER ROUNDUP FOR SE SOUTH DAKOTA/SW MINNESOTA/NW IOWA NATIONAL WEATHER SERVICE SIOUX FALLS SD 600 AM CDT THU JUL 19 2018 NOTE: "FAIR" INDICATES FEW OR NO CLOUDS BELOW 12,000 FEET WITH NO SIGNIFICANT WEATHER AND OR OBSTRUCTIONS TO VISIBILITY. SDZ038>040-050-052>070-191200- SOUTHEAST SOUTH DAKOTA CITY SKY/WX TMP DP RH WIND PRES REMARKS CHAMBERLAIN CLOUDY 68 68 100 NW13 29.82R HURON CLOUDY 65 64 97 NW12 29.74F MADISON FAIR 66 66 100 SW8 29.75F MITCHELL MOCLDY 68 65 90 W10 29.75S SIOUX FALLS CLOUDY 72 71 97 S7 29.75F WINNER CLOUDY 68 64 87 NW14G21 29.87R YANKTON CLEAR 70 67 90 SW9 29.77R $$ MNZ071-072-080-081-089-090-097-098-191200- SOUTHWEST MINNESOTA CITY SKY/WX TMP DP RH WIND PRES REMARKS FAIRMONT LGT RAIN 69 67 93 SE12 29.82F JACKSON CLOUDY 70 64 83 S10G17 29.82F LUVERNE TSTM 68 64 88 S10 29.77F MARSHALL RAIN 69 67 93 S15 29.76F MONTEVIDEO LGT RAIN 68 66 94 S13G18 29.76F PIPESTONE CLOUDY 70 66 88 S12 29.76F REDWOOD FALLS LGT RAIN 68 67 96 SE13 29.76F FOG TRACY RAIN 69 67 93 S9 29.77F WINDOM PTCLDY 70 68 94 SE14 29.80S WORTHINGTON CLOUDY 69 65 86 S14 29.80F $$ IAZ001>003-012>014-020>022-031-032-NEZ013-014-SDZ071-191200- NORTHWEST IOWA CITY SKY/WX TMP DP RH WIND PRES REMARKS CHEROKEE CLOUDY 70 68 95 S7 29.81S DENISON CLEAR 68 66 94 S6G14 29.84S ESTHERVILLE CLOUDY 69 66 90 SE13 29.82F ORANGE CITY CLOUDY 72 70 94 S12 29.79S SHELDON CLOUDY 68 68 100 S10 29.77F SIOUX CITY CLOUDY 71 69 93 S10 29.78F SPENCER CLOUDY 72 66 81 SE13 29.81F STORM LAKE MOCLDY 66 64 94 S9 29.82F $$ ABBREVIATIONS USED IN REMARKS TC - TEMPERATURE IN CELSIUS WCI - WIND CHILL INDEX HX - HEAT INDEX VSB - VISIBILITY ASUS43 KFSD 191110 RWRSD WEATHER ROUNDUP FOR SOUTH DAKOTA NATIONAL WEATHER SERVICE SIOUX FALLS SD 600 AM CDT THU JUL 19 2018 NOTE: "FAIR" INDICATES FEW OR NO CLOUDS BELOW 12,000 FEET WITH NO SIGNIFICANT WEATHER AND/OR OBSTRUCTIONS TO VISIBILITY. SDZ001>005-009-010-012>017-191200- NORTHWEST AND NORTH CENTRAL SOUTH DAKOTA CITY SKY/WX TMP DP RH WIND PRES REMARKS BUFFALO N/A 63 54 72 N7 29.91 FAITH N/A 58 58 100 NW10 29.93R MOBRIDGE PTCLDY 65 63 93 NW9 29.82R $$ SDZ012>016-024>037-041>051-057-063-072>074-191200- SOUTHWEST AND SOUTH CENTRAL SOUTH DAKOTA CITY SKY/WX TMP DP RH WIND PRES REMARKS RAPID CTY ARPT CLEAR 55 52 89 SE5 29.96S PIERRE CLOUDY 65 65 100 NW10 29.84R CUSTER PTCLDY 59 52 77 SW6 30.11S ELLSWORTH AFB CLEAR 62 56 79 CALM 29.96R PHILIP PTCLDY 62 61 96 NW6 29.91R PINE RIDGE CLEAR 60 58 92 W6 29.99S SPEARFISH FAIR 57 52 82 E3 29.99S WINNER CLOUDY 68 64 87 NW14G21 29.87R $$ SDZ004>011-016>023-039-040-191200- NORTHEAST SOUTH DAKOTA CITY SKY/WX TMP DP RH WIND PRES REMARKS ABERDEEN LGT RAIN 67 66 97 CALM 29.75F WATERTOWN PTCLDY 63 63 100 N5 29.73F SISSETON N/A 67 66 97 CALM 29.74F $$ SDZ017-020-022-023-036>040-048>070-191200- SOUTHEAST SOUTH DAKOTA CITY SKY/WX TMP DP RH WIND PRES REMARKS SIOUX FALLS CLOUDY 72 71 97 S7 29.75F HURON CLOUDY 65 64 97 NW12 29.74F CHAMBERLAIN CLOUDY 68 68 100 NW13 29.82R MITCHELL MOCLDY 68 65 90 W10 29.75S YANKTON CLEAR 70 67 90 SW9 29.77R $$ ABBREVIATIONS USED IN REMARKS TC - TEMPERATURE IN CELSIUS WCI - WIND CHILL INDEX HX - HEAT INDEX VSB - VISIBILITY
Office: EAX ASUS43 KEAX 191110 RWREAX WEATHER ROUNDUP FOR EASTERN KANSAS AND NORTHWEST MISSOURI NATIONAL WEATHER SERVICE KANSAS CITY/PLEASANT HILL MO 600 AM CDT THU JUL 19 2018 KSZ040-057-103>105-MOZ028-029-037-043-191200- ...KANSAS CITY METROPOLITAN AREA... CITY SKY/WX TMP DP RH WIND PRES REMARKS K.C. INTL MOCLDY 74 72 93 S9 29.86F K.C. DOWNTOWN CLOUDY 76 71 85 CALM 29.86F LEES SUMMIT CLEAR 74 73 97 S8 29.89S OLATHE - IXD CLEAR 74 73 97 S7 29.88F OLATHE - OJC CLEAR 71 71 100 S7 29.88F LAWRENCE CLOUDY 74 73 97 SE6 29.85F $$ MOZ001>008-011>017-020>025-030>033-038>040-044>046-053-054-191200- ...NORTHERN AND CENTRAL MISSOURI... CITY SKY/WX TMP DP RH WIND PRES REMARKS ST. JOSEPH MOCLDY 74 73 97 SE5 29.85F MOSBY PTSUNNY 72 70 94 SE3 29.86F WARRENSBURG MOCLDY 72 70 94 SE6 29.90S WHITEMAN AFB MOCLDY 72 72 98 S8 29.87R CLINTON CLOUDY 73 73 100 CALM 29.92R SEDALIA CLEAR 74 72 93 S8 29.92S WARSAW NOT AVBL CHILLICOTHE N/A 73 69 87 SE7 29.88F KIRKSVILLE PTCLDY 70 65 84 SE9 29.92F $$ MOZ041-047>049-056>058-063>065-088>090-097-191200- ...EASTERN AND SOUTHERN MISSOURI... CITY SKY/WX TMP DP RH WIND PRES REMARKS ST. LOUIS INTL MOCLDY 72 61 68 SE8 29.96S SPIRIT OF STL CLOUDY 73 61 65 SE3 29.94S COLUMBIA CLOUDY 72 66 81 SE6 29.93S JEFFERSON CITY CLOUDY 74 68 81 SE3 29.92R ROLLA CLOUDY 73 64 73 SE8 29.95S OSAGE BEACH MOCLDY 71 70 96 SE3 29.94R SPRINGFIELD CLOUDY 73 71 93 S10 29.93S JOPLIN CLEAR 74 72 93 VRB3 29.90S WEST PLAINS FOG 71 70 96 S3 29.97F VSB 1/4 $$ IAZ060-094-KSZ022-034>040-054-083-096-NEZ052-066-093-191200- ...KANSAS...SOUTHEAST NEBRASKA AND IOWA... CITY SKY/WX TMP DP RH WIND PRES REMARKS TOPEKA CLEAR 75 74 96 S9 29.83F MANHATTAN CLEAR 73 72 96 SW3 29.86F EMPORIA CLEAR 71 69 93 CALM 29.89S FOG CHANUTE CLEAR 73 73 100 SE3 29.91R FOG WICHITA PTCLDY 75 74 96 CALM 29.89S OMAHA CLOUDY 74 69 85 S8 29.82S LINCOLN MOCLDY 71 68 90 CALM 29.85F FALLS CITY CLOUDY 71 70 96 SE3 29.84R FOG LAMONI MOCLDY 71 65 81 S7 29.88S DES MOINES CLOUDY 70 67 90 SE12 29.87F $$